Time,TemperatureF,DewpointF,PressureIn,WindDirection,WindDirectionDegrees,WindSpeedMPH,WindSpeedGustMPH,Humidity,HourlyPrecipIn,Conditions,Clouds,dailyrainin,SoftwareType,DateUTC
2013-01-25 00:07:00,35.5,31.0,30.16,West,280,0.0,-999.0,82,-99.99,,,0.00,weatherlink.com 1.10,2013-01-25 07:07:00,
2013-01-25 00:22:00,35.3,31.0,30.15,West,280,0.0,-999.0,83,-99.99,,,0.00,weatherlink.com 1.10,2013-01-25 07:22:00,
2013-01-25 00:37:00,35.2,31.0,30.16,West,280,0.0,-999.0,83,-99.99,,,0.00,weatherlink.com 1.10,2013-01-25 07:37:00,
2013-01-25 00:52:00,35.3,31.0,30.15,West,280,2.0,-999.0,83,-99.99,,,0.00,weatherlink.com 1.10,2013-01-25 07:52:00,
2013-01-25 01:07:00,35.6,31.0,30.14,West,280,0.0,-999.0,82,-99.99,,,0.00,weatherlink.com 1.10,2013-01-25 08:07:00,
2013-01-25 01:22:00,35.5,31.0,30.15,West,280,0.0,-999.0,82,-99.99,,,0.00,weatherlink.com 1.10,2013-01-25 08:22:00,
2013-01-25 01:37:00,35.5,31.0,30.16,West,280,0.0,-999.0,82,-99.99,,,0.00,weatherlink.com 1.10,2013-01-25 08:37:00,
2013-01-25 01:52:00,35.3,31.0,30.16,West,280,0.0,-999.0,83,-99.99,,,0.00,weatherlink.com 1.10,2013-01-25 08:52:00,
2013-01-25 02:07:00,35.2,31.0,30.15,West,280,0.0,-999.0,83,-99.99,,,0.00,weatherlink.com 1.10,2013-01-25 09:07:00,
2013-01-25 02:22:00,35.2,31.0,30.16,West,280,0.0,-999.0,83,-99.99,,,0.00,weatherlink.com 1.10,2013-01-25 09:22:00,
2013-01-25 02:37:00,35.0,30.0,30.15,West,280,0.0,-999.0,83,-99.99,,,0.00,weatherlink.com 1.10,2013-01-25 09:37:00,
2013-01-25 02:52:00,35.0,31.0,30.15,West,280,0.0,-999.0,84,-99.99,,,0.00,weatherlink.com 1.10,2013-01-25 09:52:00,
2013-01-25 03:09:00,35.0,31.0,30.14,West,280,0.0,-999.0,84,-99.99,,,0.00,weatherlink.com 1.10,2013-01-25 10:09:00,
2013-01-25 03:22:00,34.9,31.0,30.16,West,280,0.0,-999.0,84,-99.99,,,0.00,weatherlink.com 1.10,2013-01-25 10:22:00,
2013-01-25 03:37:00,34.9,31.0,30.16,West,280,0.0,-999.0,84,-99.99,,,0.00,weatherlink.com 1.10,2013-01-25 10:37:00,
2013-01-25 03:52:00,34.9,31.0,30.15,West,280,0.0,-999.0,84,-99.99,,,0.00,weatherlink.com 1.10,2013-01-25 10:52:00,
2013-01-25 04:07:00,34.9,30.0,30.14,West,280,0.0,-999.0,83,-99.99,,,0.00,weatherlink.com 1.10,2013-01-25 11:07:00,
2013-01-25 04:22:00,35.0,30.0,30.15,West,280,0.0,-999.0,82,-99.99,,,0.00,weatherlink.com 1.10,2013-01-25 11:22:00,
2013-01-25 04:37:00,35.2,30.0,30.16,West,280,0.0,-999.0,81,-99.99,,,0.00,weatherlink.com 1.10,2013-01-25 11:37:00,
2013-01-25 04:52:00,35.0,30.0,30.15,West,280,0.0,-999.0,82,-99.99,,,0.00,weatherlink.com 1.10,2013-01-25 11:52:00,
2013-01-25 05:07:00,35.0,30.0,30.16,West,280,0.0,-999.0,82,-99.99,,,0.00,weatherlink.com 1.10,2013-01-25 12:07:00,
2013-01-25 05:22:00,35.0,30.0,30.17,West,280,0.0,-999.0,82,-99.99,,,0.00,weatherlink.com 1.10,2013-01-25 12:22:00,
2013-01-25 05:37:00,35.2,30.0,30.18,West,280,0.0,-999.0,81,-99.99,,,0.00,weatherlink.com 1.10,2013-01-25 12:37:00,
2013-01-25 05:52:00,35.0,30.0,30.18,West,280,0.0,-999.0,82,-99.99,,,0.00,weatherlink.com 1.10,2013-01-25 12:52:00,
2013-01-25 06:07:00,34.9,30.0,30.18,West,280,0.0,-999.0,82,-99.99,,,0.00,weatherlink.com 1.10,2013-01-25 13:07:00,
2013-01-25 06:22:00,34.9,30.0,30.18,West,280,0.0,-999.0,83,-99.99,,,0.00,weatherlink.com 1.10,2013-01-25 13:22:00,
2013-01-25 06:37:00,34.9,30.0,30.19,West,280,0.0,-999.0,83,-99.99,,,0.00,weatherlink.com 1.10,2013-01-25 13:37:00,
2013-01-25 06:52:00,34.9,30.0,30.19,West,280,1.0,-999.0,83,-99.99,,,0.00,weatherlink.com 1.10,2013-01-25 13:52:00,
2013-01-25 07:07:00,34.9,31.0,30.20,West,280,0.0,-999.0,84,-99.99,,,0.00,weatherlink.com 1.10,2013-01-25 14:07:00,
2013-01-25 07:22:00,34.7,31.0,30.22,West,280,0.0,-999.0,85,-99.99,,,0.01,weatherlink.com 1.10,2013-01-25 14:22:00,
2013-01-25 07:37:00,34.7,31.0,30.23,West,280,0.0,-999.0,86,-99.99,,,0.01,weatherlink.com 1.10,2013-01-25 14:37:00,
2013-01-25 07:52:00,34.7,31.0,30.22,West,280,0.0,-999.0,87,-99.99,,,0.01,weatherlink.com 1.10,2013-01-25 14:52:00,
2013-01-25 08:07:00,34.9,31.0,30.22,West,280,0.0,-999.0,87,-99.99,,,0.01,weatherlink.com 1.10,2013-01-25 15:07:00,
2013-01-25 08:22:00,35.2,32.0,30.22,West,280,0.0,-999.0,88,-99.99,,,0.01,weatherlink.com 1.10,2013-01-25 15:22:00,
2013-01-25 08:37:00,35.6,32.0,30.22,West,280,0.0,-999.0,88,-99.99,,,0.01,weatherlink.com 1.10,2013-01-25 15:37:00,
2013-01-25 08:52:00,36.2,33.0,30.23,West,280,2.0,-999.0,88,-99.99,,,0.01,weatherlink.com 1.10,2013-01-25 15:52:00,
2013-01-25 09:07:00,36.8,33.0,30.21,West,280,1.0,-999.0,87,-99.99,,,0.01,weatherlink.com 1.10,2013-01-25 16:07:00,
2013-01-25 09:22:00,37.2,33.0,30.22,West,280,4.0,-999.0,85,-99.99,,,0.01,weatherlink.com 1.10,2013-01-25 16:22:00,
2013-01-25 09:37:00,38.0,34.0,30.21,West,280,5.0,-999.0,84,-99.99,,,0.01,weatherlink.com 1.10,2013-01-25 16:37:00,
2013-01-25 09:53:00,38.6,34.0,30.21,West,280,2.0,-999.0,83,-99.99,,,0.01,weatherlink.com 1.10,2013-01-25 16:53:00,
2013-01-25 10:08:00,39.5,34.0,30.21,NNE,30,2.0,-999.0,82,-99.99,,,0.01,weatherlink.com 1.10,2013-01-25 17:08:00,
2013-01-25 10:22:00,40.8,35.0,30.20,NNE,30,1.0,-999.0,79,-99.99,,,0.01,weatherlink.com 1.10,2013-01-25 17:22:00,
2013-01-25 10:38:00,41.6,35.0,30.21,NNE,30,1.0,-999.0,78,-99.99,,,0.01,weatherlink.com 1.10,2013-01-25 17:38:00,
2013-01-25 10:53:00,41.9,35.0,30.20,NNE,30,4.0,-999.0,77,-99.99,,,0.01,weatherlink.com 1.10,2013-01-25 17:53:00,
2013-01-25 11:08:00,41.9,35.0,30.21,NNE,30,4.0,-999.0,77,-99.99,,,0.01,weatherlink.com 1.10,2013-01-25 18:08:00,
2013-01-25 11:23:00,42.2,35.0,30.21,NNE,30,4.0,-999.0,77,-99.99,,,0.01,weatherlink.com 1.10,2013-01-25 18:23:00,
2013-01-25 11:38:00,42.3,36.0,30.20,NNE,30,4.0,-999.0,77,-99.99,,,0.01,weatherlink.com 1.10,2013-01-25 18:38:00,
2013-01-25 11:53:00,42.8,36.0,30.19,NNE,30,3.0,-999.0,76,-99.99,,,0.01,weatherlink.com 1.10,2013-01-25 18:53:00,
2013-01-25 12:08:00,43.1,37.0,30.18,NNE,30,0.0,-999.0,78,-99.99,,,0.01,weatherlink.com 1.10,2013-01-25 19:08:00,
2013-01-25 12:23:00,43.5,36.0,30.17,NNE,30,0.0,-999.0,76,-99.99,,,0.01,weatherlink.com 1.10,2013-01-25 19:23:00,
2013-01-25 12:38:00,43.9,37.0,30.16,NNE,30,0.0,-999.0,76,-99.99,,,0.01,weatherlink.com 1.10,2013-01-25 19:38:00,
2013-01-25 12:53:00,44.5,37.0,30.15,NNE,30,0.0,-999.0,74,-99.99,,,0.01,weatherlink.com 1.10,2013-01-25 19:53:00,
2013-01-25 13:08:00,44.8,37.0,30.14,NNE,30,0.0,-999.0,75,-99.99,,,0.01,weatherlink.com 1.10,2013-01-25 20:08:00,
2013-01-25 13:23:00,45.8,38.0,30.13,NNE,30,0.0,-999.0,73,-99.99,,,0.01,weatherlink.com 1.10,2013-01-25 20:23:00,
2013-01-25 13:38:00,46.7,37.0,30.12,NNE,30,0.0,-999.0,70,-99.99,,,0.01,weatherlink.com 1.10,2013-01-25 20:38:00,
2013-01-25 13:53:00,47.0,38.0,30.10,NNE,30,2.0,-999.0,71,-99.99,,,0.01,weatherlink.com 1.10,2013-01-25 20:53:00,
2013-01-25 14:08:00,47.4,38.0,30.10,NNE,30,0.0,-999.0,70,-99.99,,,0.01,weatherlink.com 1.10,2013-01-25 21:08:00,
2013-01-25 14:23:00,47.7,38.0,30.10,NNE,30,3.0,-999.0,69,-99.99,,,0.01,weatherlink.com 1.10,2013-01-25 21:23:00,
2013-01-25 14:38:00,47.3,38.0,30.09,NNE,30,1.0,-999.0,71,-99.99,,,0.01,weatherlink.com 1.10,2013-01-25 21:38:00,
2013-01-25 14:53:00,47.1,38.0,30.09,NNE,30,4.0,-999.0,71,-99.99,,,0.01,weatherlink.com 1.10,2013-01-25 21:53:00,
2013-01-25 15:08:00,47.0,38.0,30.09,NNE,30,0.0,-999.0,71,-99.99,,,0.01,weatherlink.com 1.10,2013-01-25 22:08:00,
2013-01-25 15:23:00,46.5,38.0,30.08,NNE,30,4.0,-999.0,71,-99.99,,,0.01,weatherlink.com 1.10,2013-01-25 22:23:00,
2013-01-25 15:38:00,46.5,38.0,30.08,NNE,30,2.0,-999.0,72,-99.99,,,0.01,weatherlink.com 1.10,2013-01-25 22:38:00,
2013-01-25 15:53:00,47.0,38.0,30.09,NNE,30,1.0,-999.0,71,-99.99,,,0.01,weatherlink.com 1.10,2013-01-25 22:53:00,
2013-01-25 16:08:00,47.1,38.0,30.08,NNE,30,2.0,-999.0,70,-99.99,,,0.01,weatherlink.com 1.10,2013-01-25 23:08:00,
2013-01-25 16:23:00,46.8,37.0,30.08,NNE,30,0.0,-999.0,70,-99.99,,,0.01,weatherlink.com 1.10,2013-01-25 23:23:00,
2013-01-25 16:38:00,46.7,38.0,30.08,NNE,30,2.0,-999.0,71,-99.99,,,0.01,weatherlink.com 1.10,2013-01-25 23:38:00,
2013-01-25 16:53:00,46.2,38.0,30.07,NNE,30,0.0,-999.0,72,-99.99,,,0.01,weatherlink.com 1.10,2013-01-25 23:53:00,
2013-01-25 17:08:00,46.0,37.0,30.09,NNE,30,0.0,-999.0,72,-99.99,,,0.01,weatherlink.com 1.10,2013-01-26 00:08:00,
2013-01-25 17:23:00,45.1,37.0,30.09,NNE,30,0.0,-999.0,74,-99.99,,,0.01,weatherlink.com 1.10,2013-01-26 00:23:00,
2013-01-25 17:38:00,44.3,37.0,30.09,NNE,30,0.0,-999.0,75,-99.99,,,0.01,weatherlink.com 1.10,2013-01-26 00:38:00,
2013-01-25 17:53:00,43.8,37.0,30.10,NNE,30,0.0,-999.0,76,-99.99,,,0.01,weatherlink.com 1.10,2013-01-26 00:53:00,
2013-01-25 18:08:00,43.1,36.0,30.10,NNE,30,0.0,-999.0,77,-99.99,,,0.01,weatherlink.com 1.10,2013-01-26 01:08:00,
2013-01-25 18:23:00,41.9,36.0,30.11,NNE,30,0.0,-999.0,79,-99.99,,,0.01,weatherlink.com 1.10,2013-01-26 01:23:00,
2013-01-25 18:38:00,41.3,36.0,30.11,NNE,30,0.0,-999.0,81,-99.99,,,0.01,weatherlink.com 1.10,2013-01-26 01:38:00,
2013-01-25 18:53:00,41.5,36.0,30.11,NNE,30,0.0,-999.0,80,-99.99,,,0.01,weatherlink.com 1.10,2013-01-26 01:53:00,
2013-01-25 19:08:00,40.1,34.0,30.11,NNE,30,0.0,-999.0,80,-99.99,,,0.01,weatherlink.com 1.10,2013-01-26 02:08:00,
2013-01-25 19:23:00,39.9,35.0,30.13,NNE,30,0.0,-999.0,82,-99.99,,,0.01,weatherlink.com 1.10,2013-01-26 02:23:00,
2013-01-25 19:38:00,39.5,35.0,30.13,NNE,30,2.0,-999.0,84,-99.99,,,0.01,weatherlink.com 1.10,2013-01-26 02:38:00,
2013-01-25 19:53:00,40.1,35.0,30.12,NNE,30,3.0,-999.0,83,-99.99,,,0.01,weatherlink.com 1.10,2013-01-26 02:53:00,
2013-01-25 20:08:00,39.6,35.0,30.12,NNE,30,3.0,-999.0,82,-99.99,,,0.01,weatherlink.com 1.10,2013-01-26 03:08:00,
2013-01-25 20:38:00,39.5,35.0,30.10,NNE,30,1.0,-999.0,83,-99.99,,,0.01,weatherlink.com 1.10,2013-01-26 03:38:00,
2013-01-25 20:53:00,39.3,35.0,30.10,NNE,30,0.0,-999.0,83,-99.99,,,0.01,weatherlink.com 1.10,2013-01-26 03:53:00,
2013-01-25 21:08:00,39.2,35.0,30.10,NNE,30,0.0,-999.0,83,-99.99,,,0.01,weatherlink.com 1.10,2013-01-26 04:08:00,
2013-01-25 21:23:00,39.1,34.0,30.09,NNE,30,0.0,-999.0,83,-99.99,,,0.01,weatherlink.com 1.10,2013-01-26 04:23:00,
2013-01-25 21:38:00,39.3,35.0,30.09,NNE,30,0.0,-999.0,83,-99.99,,,0.01,weatherlink.com 1.10,2013-01-26 04:38:00,
2013-01-25 22:08:00,39.1,34.0,30.10,NNE,30,0.0,-999.0,83,-99.99,,,0.01,weatherlink.com 1.10,2013-01-26 05:08:00,
2013-01-25 22:23:00,39.2,35.0,30.08,NNE,30,3.0,-999.0,83,-99.99,,,0.01,weatherlink.com 1.10,2013-01-26 05:23:00,
2013-01-25 22:38:00,39.3,34.0,30.07,NNE,30,4.0,-999.0,82,-99.99,,,0.01,weatherlink.com 1.10,2013-01-26 05:38:00,
2013-01-25 22:53:00,39.6,35.0,30.06,NNE,30,0.0,-999.0,82,-99.99,,,0.01,weatherlink.com 1.10,2013-01-26 05:53:00,
2013-01-25 23:08:00,39.5,34.0,30.06,NNE,30,0.0,-999.0,82,-99.99,,,0.01,weatherlink.com 1.10,2013-01-26 06:08:00,
2013-01-25 23:23:00,39.1,34.0,30.06,NNE,30,2.0,-999.0,82,-99.99,,,0.01,weatherlink.com 1.10,2013-01-26 06:23:00,
2013-01-25 23:38:00,39.1,34.0,30.05,NNE,30,2.0,-999.0,83,-99.99,,,0.01,weatherlink.com 1.10,2013-01-26 06:38:00,
2013-01-25 23:53:00,38.9,34.0,30.05,NNE,30,0.0,-999.0,82,-99.99,,,0.01,weatherlink.com 1.10,2013-01-26 06:53:00,